Travis Air Force Base
KSUU : now visible

Airfield :











YOU CAN JOIN US ON...

 
LOGIN :

Register | Disclaimer

   EN    FR    IT 

 









Legend :    VFR   Marginal VFR   IFR   Intensive IFR   Very Intensive IFR
Visi :
Ceiling :
>= 8 km
>= 3000ft
5 to 8 km
1000 to 3000 ft
1500m to 5 km
500 to 1000 ft
800 to 1500m
200 to 500 ft
< 800m
< 200 ft
Symbols :   Thunderstorms  Fog  Heavy snow  Heavy precipitations  Wind > 20 kt






- Airport Elevation : 62 ft


KSUU - Travis Air Force Base

CURRENT METAR :
  • 212058Z AUTO 24017KT 10SM CLR 22/07 A2981 RMK AO2 SLP101 T02220068 57013 $

EXPIRED METARs :
  • 211958Z AUTO 24017KT 10SM CLR 21/07 A2982 RMK AO2 SLP105 T02120074 $
  • 211858Z AUTO 24016KT 10SM CLR 20/08 A2984 RMK AO2 SLP111 T02000077 $

TAF AMD TAF KSUU
Valid from the 21 at 19:00 until the 23 at 01:00 UTC


211957Z 2119/2301 23015G25KT 9999 SKC QNH2972INS
BECMG 2202/2203 23012G18KT 9999 SKC QNH2975INS TX25/2122Z TN07/2213Z
KZOA FIR / North America



MET'MAP, your aeronautical weather chart ! - Copyright ORBIFLY December 2007 - Disclaimer

ORBIFLY MET'MAP TEAM :

Programming & Development : Alexandra Zaïnal
Concept & original design : Baudouin d'Aumeries
Assistance for programming : Marc-Olivier Méhu
Technical & hardware support : Manuel Goepfert

Contact : metmap@orbifly.com




SOURCES & CREDITS :

   NOAA       Earth
Advisory